This is the latest recevied weather packets stored in our database for station/object OE9MNR-10. If no packets are shown the sender has not sent any weather packets the latest 10 day(s).
| Time | Temp. | Humidity | Pressure | Rain* | Wind** | Luminosity | Snow |
|---|---|---|---|---|---|---|---|
| 1787916506 | 22.78° C | 100% | 968.8 hPa | - | - | - | - |
| 1787916206 | 22.78° C | 100% | 968.7 hPa | - | - | - | - |
| 1787915906 | 22.78° C | 100% | 968.2 hPa | - | - | - | - |
| 1787915606 | 23.33° C | 100% | 968.3 hPa | - | - | - | - |
| 1787915306 | 23.33° C | 100% | 968.3 hPa | - | - | - | - |
| 1787914706 | 23.33° C | 100% | 967.7 hPa | - | - | - | - |
| 1787914406 | 23.89° C | 100% | 967.8 hPa | - | - | - | - |
| 1787914106 | 23.89° C | 100% | 967.8 hPa | - | - | - | - |
| 1787913806 | 23.89° C | 100% | 967.8 hPa | - | - | - | - |
| 1787913506 | 23.89° C | 100% | 967.6 hPa | - | - | - | - |
| 1787913206 | 24.44° C | 100% | 967.4 hPa | - | - | - | - |
| 1787912906 | 24.44° C | 100% | 967.4 hPa | - | - | - | - |
| 1787912606 | 24.44° C | 100% | 967.4 hPa | - | - | - | - |
| 1787912306 | 24.44° C | 100% | 967.3 hPa | - | - | - | - |
| 1787912006 | 24.44° C | 100% | 967.4 hPa | - | - | - | - |
| 1787911406 | 22.78° C | 100% | 967.6 hPa | - | - | - | - |
| 1787911106 | 22.78° C | 100% | 967.7 hPa | - | - | - | - |
| 1787910806 | 22.78° C | 100% | 967.4 hPa | - | - | - | - |
| 1787910506 | 22.78° C | 100% | 967.2 hPa | - | - | - | - |
| 1787910206 | 23.33° C | 100% | 967 hPa | - | - | - | - |
| 1787909906 | 23.33° C | 100% | 966.8 hPa | - | - | - | - |
| 1787909606 | 23.33° C | 100% | 966.7 hPa | - | - | - | - |
| 1787909306 | 23.89° C | 100% | 966.5 hPa | - | - | - | - |
| 1787909006 | 24.44° C | 100% | 966.6 hPa | - | - | - | - |
| 1787908706 | 25.56° C | 100% | 966 hPa | - | - | - | - |
* Rain since midnight (hover to see other rain measurements)
** Current wind speed in m/s (hover to see current wind gust speed)